DateTimeUTC,F1_A11,F1_S11,BsB_S11,BsG_S11,BsR_S11,BbsB_S11,BbsG_S11,BbsR_S11,BaB_A11,BaG_A11,BaR_A11,Tu_S11,T_S11,Uu_S11,U_S11,P_S11,T1_A11
2021-10-03T08:00:00Z,00000200,21000000,,,,,,,-000.17,0000.28,-000.11,16.6,23.8,,00.0,0670.3,30.9
2021-10-03T08:01:00Z,00000200,21000000,,,,,,,0000.03,-000.13,0000.05,16.6,23.8,,00.0,0670.3,30.9
2021-10-03T08:02:00Z,00000200,21000000,,,,,,,0000.29,0000.13,-000.04,16.6,23.8,,00.0,0670.3,30.9
2021-10-03T08:03:00Z,00000200,61000000,,,,,,,0000.09,0000.35,0000.25,16.6,23.8,,00.0,0670.3,30.9
2021-10-03T08:04:00Z,00000200,41000000,0000.45,-000.19,0000.10,-000.17,0000.19,-000.39,0000.08,-000.08,0000.07,17.0,23.7,,00.0,0671.3,30.9
2021-10-03T08:05:00Z,00000200,01000000,0000.78,0000.05,0000.18,0000.28,0000.16,-000.02,-000.04,0000.19,0000.22,17.1,23.6,,00.0,0671.3,30.9
2021-10-03T08:06:00Z,00000200,01000000,0000.65,0000.40,-000.24,-000.04,0000.17,-000.31,-000.19,-000.31,-000.21,17.2,23.7,,00.0,0671.3,30.9
2021-10-03T08:07:00Z,00000200,01000000,-000.34,0000.12,-000.48,0000.05,-000.12,-000.31,0000.21,0000.26,0000.10,17.2,23.7,,00.0,0671.4,30.9
2021-10-03T08:08:00Z,00000200,01000000,0000.52,-000.02,0000.19,0000.33,-000.12,-000.04,-000.15,0000.04,0000.11,17.3,23.7,,00.0,0671.4,30.9
2021-10-03T08:09:00Z,00000200,01000000,0000.17,0000.36,0000.36,-000.23,-000.03,0000.04,0000.28,-000.13,-000.36,17.2,23.8,,00.0,0671.3,30.9
2021-10-03T08:10:00Z,00000200,01000000,-001.32,-000.09,-000.02,-000.16,0000.05,-000.29,-000.32,-000.11,0000.13,17.2,23.7,,00.0,0671.3,30.9
2021-10-03T08:11:00Z,00000200,01000000,0000.24,0000.12,-000.23,0000.10,0000.09,-000.17,0000.02,-000.06,-000.15,17.1,23.7,,00.0,0671.3,30.9
2021-10-03T08:12:00Z,00000200,01000000,-000.22,0000.09,0000.04,-000.05,0000.10,-000.14,-000.31,-000.33,-000.16,17.1,23.7,,00.0,0671.3,30.9
2021-10-03T08:13:00Z,00000200,01000000,-000.24,0000.08,0000.20,-000.15,0000.09,-000.26,0000.02,0000.05,0000.08,17.0,23.6,,00.0,0671.3,30.9
2021-10-03T08:14:00Z,00000200,01000000,0000.15,0000.01,0000.07,0000.07,-000.17,-000.19,0000.23,0000.31,0000.03,17.0,23.6,,00.0,0671.3,30.9
2021-10-03T08:15:00Z,00000200,01000000,0000.26,0000.25,0000.10,-000.11,0000.23,-000.23,0000.29,-000.06,0000.02,17.0,23.6,,00.0,0671.2,30.9
2021-10-03T08:16:00Z,00000200,01000000,-000.22,0000.22,-000.06,0000.22,0000.19,-000.05,-000.24,-000.06,0000.13,16.9,23.6,,00.0,0671.2,30.8
2021-10-03T08:17:00Z,00000200,01000000,0000.55,0000.01,-000.24,-000.19,0000.02,-000.32,0003.94,0003.44,0002.51,17.0,23.6,,00.0,0671.2,30.9
2021-10-03T08:18:00Z,00000200,01000000,0002.37,0001.58,0000.65,0000.73,0000.18,0000.16,0030.65,0028.38,0022.52,17.1,23.6,,00.0,0671.2,30.9
2021-10-03T08:19:00Z,00000200,01000000,0000.98,0000.45,0000.11,0000.12,0000.11,0000.14,0010.99,0010.36,0008.14,17.1,23.6,,00.0,0671.2,30.9
2021-10-03T08:20:00Z,00000200,01000000,0001.05,0000.19,-000.05,-000.14,0000.53,0000.22,0001.22,0000.94,0000.91,17.2,23.7,,00.0,0671.2,30.9
2021-10-03T08:21:00Z,00000200,01000000,-000.08,0000.26,-000.44,-000.21,0000.25,-000.49,0000.29,0000.09,0000.23,17.3,23.7,,00.0,0671.3,30.9
2021-10-03T08:22:00Z,00000200,01000000,0000.55,-000.09,0000.07,-000.10,0000.18,0000.14,0000.11,0000.17,0000.07,17.3,23.7,,00.0,0671.3,30.9
2021-10-03T08:23:00Z,00000200,01000000,-000.56,0000.12,-000.19,-000.04,0000.10,-000.26,-000.23,-000.07,-000.33,17.4,23.7,,00.0,0671.2,30.9
2021-10-03T08:24:00Z,00000200,01000000,0000.08,0000.01,0000.15,0000.13,0000.16,-000.09,-000.02,0000.16,0000.27,17.3,23.7,,00.0,0671.2,30.9
2021-10-03T08:25:00Z,00000200,01000000,-000.01,0000.11,-000.05,0000.43,0000.28,-000.32,0000.04,-000.38,-000.21,17.3,23.7,,00.0,0671.2,30.9
2021-10-03T08:26:00Z,00000200,01000000,-000.15,-000.11,-000.05,0000.28,0000.07,-000.05,0000.10,0000.03,-000.03,17.2,23.7,,00.0,0671.2,30.9
2021-10-03T08:27:00Z,00000200,01000000,0000.50,0000.23,-000.01,0000.02,0000.25,-000.14,-000.04,0000.08,0000.08,17.1,23.6,,00.0,0671.2,30.9
2021-10-03T08:28:00Z,00000200,01000000,-000.11,0000.19,-000.03,-000.22,-000.06,-000.19,-000.25,0000.02,-000.01,17.1,23.6,,00.0,0671.2,30.9
2021-10-03T08:29:00Z,00000200,01000000,0000.24,0000.40,0000.03,0000.04,0000.14,-000.17,0000.18,0000.04,-000.21,17.0,23.6,,00.0,0671.2,30.9
2021-10-03T08:30:00Z,00000200,01000000,0000.03,0000.33,0000.04,-000.40,0000.12,-000.20,-000.12,0000.03,0000.04,17.0,23.5,,00.0,0671.2,30.9
2021-10-03T08:31:00Z,00000200,01000000,0000.19,0000.36,-000.08,0000.05,-000.15,-000.23,0000.25,0000.37,0000.37,17.0,23.6,,00.0,0671.2,30.9
2021-10-03T08:32:00Z,00000200,01000000,0000.54,0000.05,-000.23,0000.09,0000.18,-000.23,0000.24,-000.17,0000.11,17.0,23.6,,00.0,0671.2,30.9
2021-10-03T08:33:00Z,00000200,01000000,0000.11,0000.02,-000.19,-000.12,0000.13,-000.12,-000.14,-000.03,0000.19,17.1,23.6,,00.0,0671.1,30.9
2021-10-03T08:34:00Z,00000200,01000000,0000.23,0000.00,0000.01,0000.02,0000.04,0000.15,0000.09,0000.18,-000.54,17.2,23.6,,00.0,0671.1,30.9
2021-10-03T08:35:00Z,00000200,01000000,0000.24,0000.06,-000.08,-000.52,-000.00,0000.04,-000.39,0000.19,0000.66,17.3,23.7,,00.0,0671.1,30.9
2021-10-03T08:36:00Z,00000200,01000000,-000.23,0000.29,-000.11,-000.03,-000.11,0000.16,0000.41,-000.01,-000.03,17.3,23.7,,00.0,0671.1,30.9
2021-10-03T08:37:00Z,00000200,01000000,0000.96,0000.42,-000.16,0000.73,0000.31,-000.15,0007.03,0006.25,0005.19,17.4,23.7,,00.0,0671.1,30.9
2021-10-03T08:38:00Z,00000200,01000000,0002.96,0002.33,0001.28,0000.63,0000.58,0000.33,0031.61,0028.77,0022.06,17.3,23.8,,00.0,0671.0,30.9
2021-10-03T08:39:00Z,00000200,01000000,0012.28,0009.32,0005.73,0002.48,0002.27,0001.44,0161.60,0148.36,0117.00,17.3,23.7,,00.0,0671.0,30.9
2021-10-03T08:40:00Z,00000200,01000000,0027.86,0020.30,0012.77,0006.23,0004.87,0003.56,0401.31,0370.07,0293.26,17.2,23.7,,00.0,0671.0,30.9
2021-10-03T08:41:00Z,00000200,01000000,0010.73,0007.59,0005.04,0002.13,0001.79,0001.44,0155.33,0143.43,0113.75,17.1,23.7,,00.0,0671.0,30.9
2021-10-03T08:42:00Z,00000200,01000000,0005.75,0004.21,0002.68,0001.25,0001.09,0000.50,0092.93,0085.58,0068.03,17.1,23.6,,00.0,0671.0,30.9
2021-10-03T08:43:00Z,00000200,01000000,0004.71,0003.47,0002.28,0001.13,0001.10,0000.52,0067.25,0061.57,0048.67,17.0,23.6,,00.0,0671.0,30.9
2021-10-03T08:44:00Z,00000200,01000000,0010.67,0007.32,0004.95,0002.25,0001.36,0001.11,0136.50,0125.95,0099.32,17.0,23.6,,00.0,0671.0,30.9
2021-10-03T08:45:00Z,00000200,01000000,0011.05,0007.78,0004.60,0002.46,0001.61,0000.99,0137.96,0126.85,0100.58,16.9,23.5,,00.0,0671.0,30.9
2021-10-03T08:46:00Z,00000200,01000000,0014.11,0010.78,0006.79,0002.56,0002.56,0001.94,0207.28,0191.57,0152.53,16.9,23.5,,00.0,0671.0,30.9
2021-10-03T08:47:00Z,00000200,01000000,0003.17,0003.17,0001.76,0000.80,0000.58,0000.32,0064.53,0059.82,0047.83,17.0,23.5,,00.0,0671.0,30.9
2021-10-03T08:48:00Z,00000200,01000000,0000.83,0000.11,-000.06,-000.08,0000.22,0000.04,0007.13,0006.46,0005.11,17.0,23.5,,00.0,0671.0,30.9
2021-10-03T08:49:00Z,00000200,01000000,0001.88,0000.63,0000.23,0000.37,0000.19,-000.08,0009.71,0009.48,0007.20,17.1,23.6,,00.0,0671.0,30.9
2021-10-03T08:50:00Z,00000200,01000000,0000.65,0000.29,-000.01,-000.19,-000.21,-000.14,0001.33,0001.01,0001.23,17.2,23.6,,00.0,0671.0,30.9
2021-10-03T08:51:00Z,00000200,01000000,0000.12,0000.13,0000.23,-000.75,0000.03,-000.16,0001.16,0000.83,0000.93,17.2,23.6,,00.0,0671.0,30.9
2021-10-03T08:52:00Z,00000200,01000000,-000.10,0000.19,-000.03,0000.22,0000.22,-000.07,0000.63,0000.75,0000.34,17.3,23.7,,00.0,0671.0,30.9
2021-10-03T08:53:00Z,00000200,01000000,0000.49,0000.24,0000.06,0000.09,0000.15,-000.06,0000.61,0000.33,0000.19,17.3,23.7,,00.0,0671.0,30.9
2021-10-03T08:54:00Z,00000200,01000000,0000.12,0000.37,-000.26,0000.17,0000.04,-000.13,0000.57,0000.14,0000.75,17.3,23.7,,00.0,0671.0,30.9
2021-10-03T08:55:00Z,00000200,01000000,0000.38,0000.08,-000.04,0000.28,0000.10,-000.04,0000.25,0000.92,0000.29,17.2,23.7,,00.0,0671.0,30.9
2021-10-03T08:56:00Z,00000200,01000000,-000.08,0000.22,-000.13,0000.43,0000.24,-000.47,0000.22,-000.19,-000.05,17.2,23.6,,00.0,0671.0,30.9
2021-10-03T08:57:00Z,00000200,41000000,,,,,,,0002.46,0002.57,0001.80,17.2,23.7,,00.0,0671.1,30.9
2021-10-03T08:58:00Z,00000200,61000000,,,,,,,0000.32,0000.19,0000.08,16.7,23.8,,00.0,0670.0,30.9
2021-10-03T08:59:00Z,00000200,21000000,,,,,,,0000.59,0000.44,0000.22,16.7,23.9,,00.0,0670.0,30.9
